Home   Weather   Macaé   Past weeks
Flag for Brazil

Past Weather in Macaé, Rio de Janeiro, Brazil — Yesterday and Last 2 Weeks

Now
79 °F

Passing clouds.


Feels Like: 83 °F
Forecast: N/A
Wind: 2 mph from Northwest

Location: Macae Airport

Current Time: Dec 13, 2019 at 6:35:20 pm

Latest Report: Dec 13, 2019 at 5:00 pm


Visibility: N/A

Pressure: 29.86 "Hg

Humidity: 94%

Dew Point: 77 °F

Location of MacaéLocation

Past Weather in Macaé — Graph

°F

Macaé Temperature Yesterday

Maximum temperature yesterday: 79 °F (at 11:00 am)
Minimum temperature yesterday: 73 °F (at 12:00 am)
Average temperature yesterday: 76 °F

High & Low Weather Summary for the Past Weeks

 TemperatureHumidityPressure
High104 °F (Dec 13, 11:00 am)100% (Nov 28, 7:00 pm)30.04 "Hg (Nov 28, 7:00 pm)
Low61 °F (Dec 8, 5:00 am)40% (Dec 13, 11:00 am)29.65 "Hg (Dec 6, 2:00 am)
Average76 °F85%29.88 "Hg
* Reported Nov 28 6:00 pm — Dec 13 5:00 pm, Macaé. Weather by CustomWeather, © 2019

Note: Actual official high and low records may vary slightly from our data, if they occured in-between our weather recording intervals... More about our weather records

Macaé Weather History for the Previous 24 Hours

Scroll right to see more
 ConditionsComfort  
Time TempWeatherWind HumidityBarometerVisibility
5:00 pm
Fri, Dec 13
79 °FPassing clouds.2 mph94%29.86 "HgN/A
4:00 pm81 °FPassing clouds.3 mph84%29.86 "HgN/A
3:00 pm79 °FPassing clouds.3 mph79%29.86 "HgN/A
2:00 pm88 °FPassing clouds.7 mph62%29.83 "HgN/A
1:00 pm99 °FPassing clouds.6 mph50%29.83 "HgN/A
12:00 pm100 °FPassing clouds.7 mph42%29.83 "HgN/A
11:00 am104 °FPassing clouds.8 mph40%29.83 "HgN/A
10:00 am100 °FPassing clouds.9 mph45%29.83 "HgN/A
9:00 am97 °FPassing clouds.10 mph47%29.83 "HgN/A
8:00 am93 °FPassing clouds.8 mph56%29.83 "HgN/A
7:00 am84 °FPassing clouds.9 mph74%29.80 "HgN/A
5:00 am75 °FPartly sunny.8 mph94%29.77 "HgN/A
4:00 am75 °FPassing clouds.7 mph94%29.77 "HgN/A
3:00 am75 °FPassing clouds.6 mph94%29.80 "HgN/A
2:00 am75 °FPassing clouds.6 mph94%29.80 "HgN/A
1:00 am75 °FPassing clouds.10 mph94%29.80 "HgN/A
12:00 am75 °FClear.7 mph94%29.80 "Hg10 mi
11:00 pm
Thu, Dec 12
75 °FClear.7 mph94%29.83 "Hg10 mi
10:00 pm75 °FClear.10 mph94%29.83 "Hg10 mi
9:00 pm75 °FPartly cloudy.6 mph94%29.86 "HgN/A
8:00 pm75 °FPartly cloudy.8 mph100%29.83 "HgN/A
7:00 pm75 °FPartly cloudy.7 mph100%29.83 "HgN/A
6:00 pm75 °FLight rain. More clouds than sun.6 mph94%29.80 "HgN/A
Weather by CustomWeather, © 2019

See weather overview

Advertising